World > North America > United States > Pennsylvania > Carmichaels

Hourly Carmichaels, PA Regional Weather

Feedback E-mail the Weather

Quick WX

Carmichaels, PA Weather Maps

°F °C°F °C
Carmichaels Weather Map
UTC Time: 8/10/2022, 01:33
Your Time:

Carmichaels, PA Regional Weather

Expires:202208100200;;763796
ASUS41 KCTP 100110
RWRCTP

REGIONAL WEATHER ROUNDUP
NATIONAL WEATHER SERVICE STATE COLLEGE PA
900 PM EDT TUE AUG 09 2022

Note: "fair" indicates few or no clouds below 12,000 feet with no 
significant weather and/or obstructions to visibility.

* = STATION THAT DOES NOT REPORT PRECIPITATION /E.G. RAIN...SNOW...ETC/
    THUNDER OR FOG.


PAZ002>004-007>009-013>016-020>023-029>032-100200-
WESTERN PENNSYLVANIA
  
CITY           SKY/WX    TMP DP  RH WIND       PRES   REMARKS
ERIE           CLEAR     68  59  73 SW3       30.07R                  
MEADVILLE      PTCLDY    65  56  72 NW3       30.09S                  
FRANKLIN       PTCLDY    65  62  90 N3        30.10R                  
NEW CASTLE     CLOUDY    70  64  81 N5          N/A                   
BEAVER COUNTY  CLOUDY    73  65  78 CALM      30.09R                  
BUTLER         CLOUDY   N/A N/A N/A NW3       30.09R                  
PITTSBURGH INT CLOUDY    73  65  75 N6        30.06R                  
PITTSBURGH     CLOUDY    71  67  87 VRB5      30.06R                  
INDIANA*       CLOUDY    73  68  83 CALM      30.11R                  
LATROBE        CLOUDY    73  72  94 N7        30.07R                  
WASHINGTON CO* CLOUDY    73  70  90 N6        30.09R                  
$$


SKY/WX - Weather  TMP - Temperature  DP - Dew Point  RH - Humidity
WIND - Wind Direction/Speed PRES - Barometric Pressure VSB - Visibility
WCI - Wind Chill Index E13G22 Wind - East Wind 13 mph/Gusts of 22 mph

Trending Headlines

Carmichaels Radar Loop



Carmichaels Quick Facts


National Two Day Weather Forecast


E-mail the Carmichaels Weather Forecast

Voice your opinion or tell us about page issues...